Tracking 20083 objects as of 12-Dec-2019
HD Live streaming from Space Station
objects crossing your sky now

FENGYUN 1C DEB

Track FENGYUN 1C DEB now!
10-day predictions


NORAD ID: 37467
Int'l Code: 1999-025EJM
Perigee: 573.5 km
Apogee: 604.1 km
Inclination: 99.4 °
Period: 96.3 minutes
Semi major axis: 6959 km
RCS: 0.0098 m2 (small)
Launch date: May 10, 1999
Source: People's Republic of China (PRC)
Launch site: Taiyaun Space Center, China (TSC)

Note: This is SATELLITE DEBRIS
aabbcc
Your satellite tracking list
Your tracking list is empty




NASA's NSSDC Master Catalog

Two Line Element Set (TLE):
1 37467U 99025EJM 18226.58777898 +.00007422 +00000-0 +67820-3 0  9991
2 37467 099.4139 012.0983 0021984 126.2767 234.0483 14.95241103470074
Source of the keplerian elements: AFSPC